| time (UTC) | temp C | wind direction | speed KPH | gust KPH | rain 1hr cm | rain 24hr cm | rain mn cm | humidity % | barometer mb |
| 20260507070058 | 8 | 312 | 4.8 | 8.0 | 0.00 | 0.03 | 0.03 | 96 | 1005.6 |
| 20260507065554 | 8 | 307 | 8.0 | 11.3 | 0.00 | 0.03 | 0.03 | 96 | 1005.3 |
| 20260507065051 | 8 | 312 | 6.4 | 8.0 | 0.00 | 0.03 | 0.03 | 98 | 1005.1 |
| 20260507064549 | 8 | 326 | 1.6 | 4.8 | 0.00 | 0.03 | 0.03 | 98 | 1005.0 |
| 20260507064048 | 8 | 318 | 3.2 | 4.8 | 0.00 | 0.03 | 0.03 | 98 | 1005.1 |
| 20260507063544 | 8 | 316 | 4.8 | 4.8 | 0.00 | 0.03 | 0.03 | 98 | 1004.8 |
| 20260507063042 | 8 | 341 | 3.2 | 3.2 | 0.00 | 0.03 | 0.03 | 98 | 1005.0 |
| 20260507062538 | 8 | 341 | 0.0 | 0.0 | 0.00 | 0.03 | 0.03 | 98 | 1004.8 |
| 20260507062036 | 8 | 341 | 0.0 | 0.0 | 0.00 | 0.03 | 0.03 | 98 | 1004.8 |
| 20260507061533 | 8 | 341 | 0.0 | 3.2 | 0.00 | 0.03 | 0.03 | 98 | 1004.8 |
| 20260507061031 | 8 | 341 | 3.2 | 4.8 | 0.00 | 0.03 | 0.03 | 98 | 1004.7 |
| 20260507060529 | 8 | 343 | 1.6 | 3.2 | 0.00 | 0.03 | 0.03 | 98 | 1004.7 |
| 20260507060025 | 8 | 344 | 1.6 | 3.2 | 0.00 | 0.03 | 0.03 | 98 | 1004.7 |
| 20260507055520 | 8 | 344 | 0.0 | 3.2 | 0.00 | 0.03 | 0.03 | 98 | 1004.6 |
| 20260507055016 | 8 | 347 | 3.2 | 3.2 | 0.00 | 0.03 | 0.03 | 98 | 1004.4 |
| 20260507054513 | 8 | 348 | 1.6 | 3.2 | 0.00 | 0.03 | 0.03 | 98 | 1004.5 |
| 20260507054010 | 8 | 348 | 1.6 | 3.2 | 0.00 | 0.03 | 0.03 | 98 | 1004.6 |
| 20260507053508 | 8 | 358 | 4.8 | 4.8 | 0.00 | 0.03 | 0.03 | 98 | 1004.3 |
| 20260507053006 | 8 | 351 | 3.2 | 4.8 | 0.00 | 0.03 | 0.03 | 98 | 1004.4 |
| 20260507052504 | 8 | 8 | 3.2 | 4.8 | 0.00 | 0.03 | 0.03 | 98 | 1004.4 |
| 20260507052000 | 8 | 348 | 3.2 | 4.8 | 0.00 | 0.03 | 0.03 | 98 | 1004.7 |
| 20260507051458 | 8 | 350 | 0.0 | 3.2 | 0.00 | 0.03 | 0.03 | 98 | 1004.1 |
| 20260507050954 | 8 | 348 | 0.0 | 0.0 | 0.00 | 0.03 | 0.03 | 98 | 1004.3 |
| 20260507050450 | 8 | 2 | 0.0 | 3.2 | 0.00 | 0.03 | 0.03 | 98 | 1004.4 |
| 20260507045948 | 8 | 43 | 3.2 | 8.0 | 0.00 | 0.03 | 0.03 | 98 | 1004.2 |
| 20260507045444 | 8 | 330 | 6.4 | 8.0 | 0.00 | 0.03 | 0.03 | 98 | 1004.4 |
| 20260507044942 | 8 | 314 | 6.4 | 8.0 | 0.00 | 0.03 | 0.03 | 98 | 1004.3 |
| 20260507044438 | 9 | 40 | 1.6 | 8.0 | 0.00 | 0.03 | 0.03 | 98 | 1004.3 |
| 20260507043934 | 9 | 20 | 1.6 | 4.8 | 0.00 | 0.03 | 0.03 | 98 | 1004.5 |
| 20260507043431 | 10 | 323 | 6.4 | 8.0 | 0.18 | 0.03 | 0.03 | 98 | 1004.3 |
| 20260507042927 | 10 | 5 | 3.2 | 4.8 | 0.18 | 0.03 | 0.03 | 98 | 1004.6 |
| 20260507042424 | 10 | 352 | 4.8 | 11.3 | 0.00 | 0.00 | 0.00 | 98 | 1004.2 |
| 20260507041919 | 10 | 329 | 11.3 | 19.3 | 0.00 | 0.00 | 0.00 | 98 | 1004.1 |
| 20260507041416 | 10 | 324 | 6.4 | 14.5 | 0.00 | 0.00 | 0.00 | 98 | 1004.5 |
| 20260507040914 | 11 | 71 | 1.6 | 8.0 | 0.13 | 0.00 | 0.00 | 98 | 1004.3 |
| 20260507040409 | 11 | 27 | 0.0 | 3.2 | 0.13 | 0.00 | 0.00 | 98 | 1004.5 |
| 20260507035905 | 11 | 22 | 0.0 | 3.2 | 0.18 | 1.27 | 1.27 | 98 | 1004.4 |
| 20260507035402 | 11 | 43 | 0.0 | 4.8 | 0.79 | 1.27 | 1.27 | 98 | 1004.3 |
| 20260507034859 | 11 | 334 | 4.8 | 11.3 | 0.48 | 1.22 | 1.22 | 98 | 1004.3 |
| 20260507034356 | 11 | 350 | 3.2 | 4.8 | 0.00 | 1.14 | 1.14 | 98 | 1004.2 |
| 20260507033854 | 11 | 345 | 8.0 | 11.3 | 0.00 | 1.14 | 1.14 | 98 | 1003.9 |
| 20260507033352 | 12 | 305 | 6.4 | 8.0 | 0.18 | 1.14 | 1.14 | 98 | 1003.7 |
| 20260507032848 | 12 | 309 | 3.2 | 8.0 | 0.18 | 1.14 | 1.14 | 98 | 1003.4 |
| 20260507032345 | 12 | 301 | 4.8 | 4.8 | 0.00 | 1.12 | 1.12 | 98 | 1003.5 |
| 20260507031841 | 12 | 319 | 4.8 | 4.8 | 0.00 | 1.12 | 1.12 | 98 | 1003.5 |
| 20260507031338 | 12 | 133 | 3.2 | 3.2 | 0.00 | 1.12 | 1.12 | 98 | 1003.3 |
| 20260507030834 | 12 | 134 | 0.0 | 3.2 | 0.00 | 1.12 | 1.12 | 98 | 1003.4 |
| 20260507030332 | 12 | 133 | 0.0 | 3.2 | 0.13 | 1.12 | 1.12 | 98 | 1003.4 |
| 20260507025829 | 12 | 131 | 1.6 | 3.2 | 0.00 | 1.09 | 1.09 | 98 | 1003.4 |
| 20260507025326 | 12 | 131 | 0.0 | 3.2 | 0.00 | 1.09 | 1.09 | 98 | 1003.4 |
| 20260507024824 | 12 | 106 | 0.0 | 0.0 | 0.00 | 1.09 | 1.09 | 98 | 1003.3 |
| 20260507024321 | 11 | 106 | 0.0 | 0.0 | 0.00 | 1.09 | 1.09 | 98 | 1003.3 |
| 20260507023817 | 11 | 106 | 0.0 | 0.0 | 0.00 | 1.09 | 1.09 | 98 | 1003.4 |
| 20260507023313 | 11 | 106 | 0.0 | 0.0 | 0.00 | 1.09 | 1.09 | 98 | 1003.5 |
| 20260507022811 | 11 | 106 | 0.0 | 0.0 | 0.00 | 1.09 | 1.09 | 98 | 1003.4 |
| 20260507022307 | 11 | 106 | 0.0 | 0.0 | 0.00 | 1.09 | 1.09 | 98 | 1003.4 |
| 20260507021803 | 11 | 106 | 0.0 | 3.2 | 0.00 | 1.09 | 1.09 | 98 | 1003.4 |
| 20260507021259 | 11 | 105 | 0.0 | 3.2 | 0.00 | 1.09 | 1.09 | 98 | 1003.4 |
| 20260507020757 | 11 | 105 | 0.0 | 3.2 | 0.00 | 1.09 | 1.09 | 98 | 1003.3 |
| 20260507020253 | 11 | 105 | 0.0 | 3.2 | 0.00 | 1.09 | 1.09 | 98 | 1003.4 |
| 20260507015751 | 11 | 105 | 0.0 | 3.2 | 0.00 | 1.09 | 1.09 | 98 | 1003.3 |
| 20260507015248 | 11 | 105 | 0.0 | 3.2 | 0.00 | 1.09 | 1.09 | 98 | 1003.3 |
| 20260507014745 | 11 | 105 | 3.2 | 3.2 | 0.00 | 1.09 | 1.09 | 98 | 1003.5 |
| 20260507014241 | 11 | 105 | 1.6 | 3.2 | 0.00 | 1.09 | 1.09 | 98 | 1003.7 |
| 20260507013738 | 11 | 106 | 1.6 | 3.2 | 0.00 | 1.09 | 1.09 | 98 | 1003.5 |
| 20260507013235 | 11 | 105 | 1.6 | 3.2 | 0.00 | 1.09 | 1.09 | 98 | 1003.7 |
| 20260507012732 | 11 | 105 | 1.6 | 3.2 | 0.00 | 1.09 | 1.09 | 98 | 1003.7 |
| 20260507012228 | 11 | 106 | 0.0 | 3.2 | 0.00 | 1.09 | 1.09 | 98 | 1003.7 |
| 20260507011726 | 11 | 106 | 0.0 | 3.2 | 0.00 | 1.09 | 1.09 | 98 | 1003.8 |
| 20260507011222 | 11 | 106 | 3.2 | 3.2 | 0.00 | 1.09 | 1.09 | 98 | 1003.8 |
| 20260507010721 | 11 | 106 | 3.2 | 3.2 | 0.00 | 1.09 | 1.09 | 98 | 1003.6 |
| 20260507010218 | 11 | 106 | 0.0 | 3.2 | 0.00 | 1.09 | 1.09 | 98 | 1003.6 |
| 20260507005716 | 11 | 106 | 1.6 | 4.8 | 0.00 | 1.09 | 1.09 | 98 | 1003.7 |
| 20260507005212 | 11 | 105 | 1.6 | 3.2 | 0.00 | 1.09 | 1.09 | 98 | 1003.8 |
| 20260507004708 | 11 | 105 | 0.0 | 3.2 | 0.00 | 1.09 | 1.09 | 98 | 1003.9 |
| 20260507004206 | 11 | 105 | 3.2 | 3.2 | 0.00 | 1.09 | 1.09 | 98 | 1003.9 |
| 20260507003702 | 11 | 105 | 3.2 | 4.8 | 0.00 | 1.09 | 1.09 | 98 | 1003.8 |
| 20260507003157 | 11 | 102 | 1.6 | 4.8 | 0.00 | 1.09 | 1.09 | 98 | 1003.7 |
| 20260507002654 | 11 | 101 | 3.2 | 4.8 | 0.00 | 1.09 | 1.09 | 98 | 1003.7 |
| 20260507002149 | 11 | 100 | 3.2 | 4.8 | 0.00 | 1.09 | 1.09 | 98 | 1003.4 |
| 20260507001647 | 11 | 100 | 1.6 | 4.8 | 0.00 | 1.09 | 1.09 | 98 | 1003.7 |
| 20260507001144 | 11 | 121 | 0.0 | 3.2 | 0.00 | 1.09 | 1.09 | 98 | 1003.9 |
| 20260507000640 | 11 | 117 | 1.6 | 3.2 | 0.00 | 1.09 | 1.09 | 98 | 1003.5 |
| 20260507000135 | 11 | 97 | 1.6 | 3.2 | 0.00 | 1.09 | 1.09 | 98 | 1003.6 |
| 20260506235633 | 11 | 96 | 3.2 | 4.8 | 0.00 | 1.09 | 1.09 | 98 | 1003.6 |
| 20260506235128 | 11 | 106 | 3.2 | 4.8 | 0.00 | 1.09 | 1.09 | 98 | 1003.5 |
| 20260506234625 | 11 | 109 | 4.8 | 8.0 | 0.00 | 1.09 | 1.09 | 98 | 1003.4 |
| 20260506234122 | 11 | 100 | 1.6 | 4.8 | 0.00 | 1.09 | 1.09 | 98 | 1003.3 |
| 20260506233619 | 11 | 100 | 4.8 | 4.8 | 0.00 | 1.09 | 1.09 | 98 | 1003.4 |
| 20260506233116 | 11 | 99 | 3.2 | 4.8 | 0.00 | 1.09 | 1.09 | 98 | 1003.6 |
| 20260506232612 | 11 | 104 | 3.2 | 4.8 | 0.00 | 1.09 | 1.09 | 98 | 1003.4 |
| 20260506232108 | 11 | 94 | 0.0 | 4.8 | 0.00 | 1.09 | 1.09 | 98 | 1003.5 |
| 20260506231605 | 11 | 99 | 4.8 | 8.0 | 0.00 | 1.09 | 1.09 | 98 | 1003.5 |
| 20260506231104 | 11 | 107 | 4.8 | 4.8 | 0.00 | 1.09 | 1.09 | 98 | 1003.4 |
| 20260506230600 | 11 | 106 | 4.8 | 4.8 | 0.00 | 1.09 | 1.09 | 98 | 1003.5 |
| 20260506230057 | 11 | 107 | 4.8 | 4.8 | 0.00 | 1.09 | 1.09 | 98 | 1003.6 |
| 20260506225554 | 11 | 111 | 4.8 | 4.8 | 0.00 | 1.09 | 1.09 | 98 | 1003.5 |
| 20260506225050 | 11 | 109 | 4.8 | 8.0 | 0.00 | 1.09 | 1.09 | 98 | 1003.5 |
| 20260506224547 | 11 | 102 | 4.8 | 4.8 | 0.00 | 1.09 | 1.09 | 98 | 1003.5 |
| 20260506224044 | 11 | 96 | 3.2 | 4.8 | 0.00 | 1.09 | 1.09 | 98 | 1003.8 |
| 20260506223539 | 11 | 109 | 3.2 | 4.8 | 0.00 | 1.09 | 1.09 | 98 | 1003.7 |
| 20260506223036 | 11 | 108 | 6.4 | 8.0 | 0.00 | 1.09 | 1.09 | 98 | 1003.6 |
| 20260506222533 | 11 | 104 | 3.2 | 4.8 | 0.00 | 1.09 | 1.09 | 98 | 1004.0 |
| 20260506222029 | 12 | 94 | 4.8 | 4.8 | 0.00 | 1.09 | 1.09 | 98 | 1004.1 |
| 20260506221527 | 12 | 96 | 4.8 | 4.8 | 0.00 | 1.09 | 1.09 | 98 | 1003.9 |
| 20260506221025 | 12 | 106 | 3.2 | 4.8 | 0.00 | 1.09 | 1.09 | 98 | 1004.0 |
| 20260506220520 | 12 | 91 | 0.0 | 3.2 | 0.00 | 1.09 | 1.09 | 98 | 1004.1 |
| 20260506220016 | 12 | 91 | 3.2 | 4.8 | 0.00 | 1.09 | 1.09 | 98 | 1004.1 |
| 20260506215513 | 12 | 97 | 3.2 | 3.2 | 0.18 | 1.09 | 1.09 | 98 | 1004.0 |
| 20260506215009 | 12 | 91 | 3.2 | 4.8 | 0.18 | 1.09 | 1.09 | 98 | 1004.4 |
| 20260506214506 | 12 | 92 | 1.6 | 3.2 | 0.00 | 1.07 | 1.07 | 98 | 1004.3 |
| 20260506214003 | 12 | 92 | 4.8 | 4.8 | 0.00 | 1.07 | 1.07 | 98 | 1004.2 |
| 20260506213501 | 12 | 106 | 4.8 | 4.8 | 0.13 | 1.07 | 1.07 | 98 | 1004.3 |
| 20260506212958 | 12 | 106 | 0.0 | 3.2 | 0.30 | 1.07 | 1.07 | 98 | 1004.5 |
| 20260506212454 | 12 | 101 | 1.6 | 3.2 | 0.30 | 1.04 | 1.04 | 98 | 1004.6 |
| 20260506211949 | 12 | 80 | 0.0 | 3.2 | 0.30 | 1.02 | 1.02 | 98 | 1004.6 |
| 20260506211445 | 12 | 84 | 3.2 | 4.8 | 0.48 | 0.99 | 0.99 | 98 | 1004.5 |
| 20260506210943 | 12 | 157 | 1.6 | 4.8 | 0.61 | 0.97 | 0.97 | 98 | 1004.7 |
| 20260506210439 | 12 | 166 | 3.2 | 4.8 | 0.89 | 0.91 | 0.91 | 98 | 1004.7 |
| 20260506205936 | 12 | 122 | 0.0 | 3.2 | 0.61 | 0.84 | 0.84 | 98 | 1004.9 |
| 20260506205432 | 12 | 123 | 3.2 | 4.8 | 0.18 | 0.76 | 0.76 | 98 | 1004.7 |
| 20260506204928 | 12 | 125 | 0.0 | 4.8 | 0.00 | 0.74 | 0.74 | 98 | 1004.9 |
| 20260506204427 | 12 | 116 | 3.2 | 4.8 | 0.13 | 0.74 | 0.74 | 98 | 1004.6 |
| 20260506203924 | 12 | 116 | 0.0 | 3.2 | 0.13 | 0.74 | 0.74 | 98 | 1004.8 |
| 20260506203421 | 12 | 116 | 3.2 | 4.8 | 0.18 | 0.71 | 0.71 | 98 | 1004.7 |
| 20260506202918 | 12 | 116 | 1.6 | 4.8 | 0.30 | 0.71 | 0.71 | 98 | 1004.7 |
| 20260506202415 | 12 | 116 | 3.2 | 3.2 | 0.30 | 0.69 | 0.69 | 98 | 1004.8 |
| 20260506201911 | 12 | 116 | 1.6 | 3.2 | 0.18 | 0.66 | 0.66 | 98 | 1004.7 |
| 20260506201409 | 12 | 116 | 0.0 | 3.2 | 0.13 | 0.64 | 0.64 | 98 | 1004.7 |
| 20260506200905 | 12 | 116 | 3.2 | 4.8 | 0.18 | 0.61 | 0.61 | 98 | 1004.6 |
| 20260506200401 | 12 | 117 | 4.8 | 4.8 | 0.48 | 0.61 | 0.61 | 98 | 1004.8 |
| 20260506195858 | 12 | 116 | 3.2 | 3.2 | 0.18 | 0.56 | 0.56 | 98 | 1005.2 |
| 20260506195355 | 12 | 116 | 3.2 | 4.8 | 0.18 | 0.53 | 0.53 | 98 | 1005.0 |
| 20260506194852 | 12 | 116 | 3.2 | 4.8 | 0.00 | 0.51 | 0.51 | 98 | 1005.0 |
| 20260506194349 | 13 | 117 | 3.2 | 4.8 | 0.13 | 0.51 | 0.51 | 98 | 1005.2 |
| 20260506193846 | 13 | 116 | 1.6 | 3.2 | 0.13 | 0.51 | 0.51 | 98 | 1005.2 |
| 20260506193343 | 13 | 116 | 1.6 | 3.2 | 0.00 | 0.48 | 0.48 | 98 | 1005.5 |
| 20260506192839 | 13 | 116 | 1.6 | 3.2 | 0.00 | 0.48 | 0.48 | 98 | 1005.3 |
| 20260506192336 | 13 | 116 | 3.2 | 3.2 | 0.18 | 0.48 | 0.48 | 98 | 1005.1 |
| 20260506191833 | 13 | 116 | 3.2 | 4.8 | 0.18 | 0.48 | 0.48 | 98 | 1005.1 |
| 20260506191329 | 13 | 116 | 1.6 | 3.2 | 0.13 | 0.46 | 0.46 | 98 | 1005.3 |
| 20260506190826 | 14 | 116 | 1.6 | 3.2 | 0.18 | 0.43 | 0.43 | 98 | 1005.3 |
| 20260506190322 | 14 | 116 | 1.6 | 3.2 | 0.30 | 0.43 | 0.43 | 98 | 1005.2 |
| 20260506185820 | 14 | 116 | 3.2 | 4.8 | 0.30 | 0.41 | 0.41 | 98 | 1005.4 |
| 20260506185317 | 14 | 116 | 3.2 | 3.2 | 0.18 | 0.38 | 0.38 | 98 | 1005.3 |
| 20260506184814 | 14 | 116 | 1.6 | 3.2 | 0.13 | 0.36 | 0.36 | 98 | 1005.5 |
| 20260506184311 | 14 | 117 | 0.0 | 3.2 | 0.30 | 0.36 | 0.36 | 98 | 1005.5 |
| 20260506183808 | 13 | 117 | 0.0 | 0.0 | 0.30 | 0.33 | 0.33 | 98 | 1005.7 |
| 20260506183303 | 13 | 117 | 0.0 | 3.2 | 0.30 | 0.30 | 0.30 | 98 | 1005.5 |
| 20260506182801 | 13 | 117 | 0.0 | 3.2 | 0.66 | 0.28 | 0.28 | 98 | 1005.5 |
| 20260506182257 | 13 | 229 | 1.6 | 8.0 | 0.61 | 0.23 | 0.23 | 97 | 1006.0 |
| 20260506181755 | 13 | 288 | 9.7 | 11.3 | 0.30 | 0.15 | 0.15 | 96 | 1006.1 |
| 20260506181253 | 13 | 113 | 1.6 | 3.2 | 0.13 | 0.13 | 0.13 | 96 | 1005.5 |
| 20260506180750 | 13 | 113 | 3.2 | 3.2 | 0.18 | 0.10 | 0.10 | 95 | 1005.4 |
| 20260506180245 | 13 | 207 | 3.2 | 4.8 | 0.30 | 0.10 | 0.10 | 95 | 1005.6 |
| 20260506175742 | 14 | 124 | 3.2 | 3.2 | 0.30 | 0.08 | 0.08 | 94 | 1005.2 |
| 20260506175239 | 15 | 108 | 0.0 | 0.0 | 0.30 | 0.05 | 0.05 | 93 | 1005.3 |
| 20260506174737 | 15 | 108 | 0.0 | 3.2 | 0.13 | 0.03 | 0.03 | 90 | 1005.4 |
| 20260506174233 | 15 | 108 | 0.0 | 4.8 | 0.00 | 0.00 | 0.00 | 89 | 1005.3 |
| 20260506173732 | 16 | 109 | 3.2 | 3.2 | 0.00 | 0.00 | 0.00 | 84 | 1005.4 |
| 20260506173228 | 16 | 99 | 3.2 | 4.8 | 0.00 | 0.00 | 0.00 | 83 | 1005.4 |
| 20260506172725 | 16 | 99 | 3.2 | 4.8 | 0.00 | 0.00 | 0.00 | 81 | 1005.5 |
| 20260506172221 | 16 | 145 | 3.2 | 3.2 | 0.00 | 0.00 | 0.00 | 84 | 1005.5 |
| 20260506171719 | 16 | 89 | 0.0 | 3.2 | 0.00 | 0.00 | 0.00 | 83 | 1005.6 |
| 20260506171216 | 16 | 115 | 0.0 | 3.2 | 0.00 | 0.00 | 0.00 | 84 | 1005.6 |
| 20260506170714 | 16 | 117 | 0.0 | 3.2 | 0.00 | 0.00 | 0.00 | 83 | 1005.8 |
| 20260506170210 | 16 | 116 | 3.2 | 4.8 | 0.00 | 0.00 | 0.00 | 83 | 1006.0 |
| 20260506165709 | 16 | 117 | 4.8 | 4.8 | 0.00 | 0.00 | 0.00 | 83 | 1006.0 |
| 20260506165205 | 16 | 119 | 1.6 | 4.8 | 0.00 | 0.00 | 0.00 | 85 | 1006.2 |
| 20260506164702 | 15 | 120 | 3.2 | 4.8 | 0.00 | 0.00 | 0.00 | 85 | 1006.2 |
| 20260506164159 | 15 | 121 | 1.6 | 3.2 | 0.00 | 0.00 | 0.00 | 85 | 1006.5 |
| 20260506163655 | 15 | 121 | 1.6 | 3.2 | 0.00 | 0.00 | 0.00 | 83 | 1006.7 |
| 20260506163151 | 16 | 96 | 0.0 | 3.2 | 0.00 | 0.00 | 0.00 | 82 | 1006.7 |
| 20260506162647 | 16 | 96 | 3.2 | 3.2 | 0.00 | 0.00 | 0.00 | 81 | 1007.0 |
| 20260506162145 | 16 | 154 | 1.6 | 3.2 | 0.00 | 0.00 | 0.00 | 80 | 1007.0 |
| 20260506161642 | 16 | 154 | 3.2 | 4.8 | 0.00 | 0.00 | 0.00 | 80 | 1007.1 |
| 20260506161139 | 16 | 104 | 3.2 | 3.2 | 0.00 | 0.00 | 0.00 | 81 | 1007.0 |
| 20260506160636 | 16 | 141 | 0.0 | 3.2 | 0.00 | 0.00 | 0.00 | 81 | 1007.2 |
| 20260506160133 | 16 | 131 | 0.0 | 3.2 | 0.00 | 0.00 | 0.00 | 80 | 1007.3 |
| 20260506155632 | 16 | 115 | 1.6 | 3.2 | 0.00 | 0.00 | 0.00 | 80 | 1007.3 |
| 20260506155128 | 16 | 101 | 3.2 | 3.2 | 0.00 | 0.00 | 0.00 | 79 | 1007.6 |
| 20260506153225 | 16 | 102 | 3.2 | 3.2 | 0.00 | 0.00 | 0.00 | 79 | 1007.6 |
| 20260506152721 | 17 | 197 | 3.2 | 4.8 | 0.00 | 0.00 | 0.00 | 78 | 1007.5 |
| 20260506152219 | 16 | 197 | 0.0 | 3.2 | 0.00 | 0.00 | 0.00 | 79 | 1007.7 |
| 20260506151718 | 16 | 197 | 3.2 | 3.2 | 0.00 | 0.00 | 0.00 | 79 | 1007.5 |
| 20260506151214 | 16 | 197 | 1.6 | 3.2 | 0.00 | 0.00 | 0.00 | 79 | 1007.7 |
| 20260506150710 | 16 | 197 | 1.6 | 3.2 | 0.00 | 0.00 | 0.00 | 79 | 1007.5 |
| 20260506150207 | 16 | 197 | 3.2 | 3.2 | 0.00 | 0.00 | 0.00 | 79 | 1007.6 |
| 20260506145704 | 16 | 197 | 3.2 | 3.2 | 0.00 | 0.00 | 0.00 | 78 | 1007.5 |
| 20260506145201 | 16 | 198 | 0.0 | 4.8 | 0.00 | 0.00 | 0.00 | 78 | 1007.5 |
| 20260506144659 | 16 | 198 | 0.0 | 0.0 | 0.00 | 0.00 | 0.00 | 79 | 1007.5 |
| 20260506144155 | 16 | 198 | 3.2 | 3.2 | 0.00 | 0.00 | 0.00 | 79 | 1007.3 |
| 20260506143653 | 16 | 198 | 0.0 | 0.0 | 0.00 | 0.00 | 0.00 | 81 | 1007.6 |
| 20260506143151 | 16 | 198 | 0.0 | 3.2 | 0.00 | 0.00 | 0.00 | 81 | 1007.3 |
| 20260506142649 | 15 | 198 | 0.0 | 3.2 | 0.00 | 0.00 | 0.00 | 81 | 1007.2 |
| 20260506142146 | 15 | 198 | 0.0 | 3.2 | 0.00 | 0.00 | 0.00 | 81 | 1007.3 |
| 20260506141644 | 15 | 197 | 3.2 | 4.8 | 0.00 | 0.00 | 0.00 | 82 | 1007.5 |
| 20260506141142 | 15 | 198 | 1.6 | 3.2 | 0.00 | 0.00 | 0.00 | 82 | 1007.5 |
| 20260506140639 | 15 | 198 | 0.0 | 3.2 | 0.00 | 0.00 | 0.00 | 81 | 1007.5 |
| 20260506140136 | 15 | 198 | 0.0 | 3.2 | 0.00 | 0.00 | 0.00 | 81 | 1007.7 |
| 20260506135633 | 15 | 198 | 0.0 | 3.2 | 0.00 | 0.00 | 0.00 | 81 | 1007.8 |
| 20260506135129 | 15 | 198 | 0.0 | 3.2 | 0.00 | 0.00 | 0.00 | 82 | 1007.7 |
| 20260506134626 | 15 | 198 | 0.0 | 3.2 | 0.00 | 0.00 | 0.00 | 83 | 1007.8 |
| 20260506134122 | 14 | 198 | 0.0 | 3.2 | 0.00 | 0.00 | 0.00 | 83 | 1007.9 |
| 20260506133620 | 13 | 198 | 0.0 | 3.2 | 0.00 | 0.00 | 0.00 | 84 | 1007.8 |
| 20260506133116 | 13 | 198 | 3.2 | 3.2 | 0.00 | 0.00 | 0.00 | 84 | 1007.9 |
| 20260506132614 | 13 | 198 | 0.0 | 3.2 | 0.00 | 0.00 | 0.00 | 84 | 1007.9 |
| 20260506132111 | 13 | 198 | 1.6 | 3.2 | 0.00 | 0.00 | 0.00 | 85 | 1008.3 |
| 20260506131608 | 13 | 198 | 3.2 | 3.2 | 0.00 | 0.00 | 0.00 | 85 | 1008.0 |
| 20260506131104 | 13 | 198 | 1.6 | 3.2 | 0.00 | 0.00 | 0.00 | 84 | 1008.0 |
| 20260506130601 | 13 | 198 | 0.0 | 3.2 | 0.00 | 0.00 | 0.00 | 83 | 1007.7 |
| 20260506130059 | 13 | 198 | 0.0 | 3.2 | 0.00 | 0.00 | 0.00 | 83 | 1007.8 |
| 20260506125557 | 13 | 198 | 3.2 | 3.2 | 0.00 | 0.00 | 0.00 | 83 | 1007.8 |
| 20260506125054 | 13 | 198 | 0.0 | 3.2 | 0.00 | 0.00 | 0.00 | 83 | 1007.9 |
| 20260506124552 | 13 | 198 | 0.0 | 3.2 | 0.00 | 0.00 | 0.00 | 83 | 1007.9 |
| 20260506124049 | 14 | 198 | 3.2 | 4.8 | 0.00 | 0.00 | 0.00 | 82 | 1007.9 |
| 20260506123547 | 13 | 198 | 3.2 | 3.2 | 0.00 | 0.00 | 0.00 | 82 | 1007.8 |
| 20260506123045 | 13 | 198 | 3.2 | 3.2 | 0.00 | 0.00 | 0.00 | 82 | 1007.9 |
| 20260506122541 | 13 | 198 | 0.0 | 3.2 | 0.00 | 0.00 | 0.00 | 83 | 1008.0 |
| 20260506122040 | 13 | 198 | 3.2 | 3.2 | 0.00 | 0.00 | 0.00 | 84 | 1008.1 |
| 20260506121537 | 13 | 198 | 1.6 | 3.2 | 0.00 | 0.00 | 0.00 | 83 | 1008.0 |
| 20260506121033 | 13 | 198 | 1.6 | 3.2 | 0.00 | 0.00 | 0.00 | 83 | 1007.9 |
| 20260506120531 | 13 | 198 | 0.0 | 0.0 | 0.00 | 0.00 | 0.00 | 84 | 1008.1 |
| 20260506120028 | 12 | 198 | 0.0 | 0.0 | 0.00 | 0.00 | 0.00 | 85 | 1008.2 |
| 20260506115526 | 12 | 199 | 0.0 | 3.2 | 0.00 | 0.00 | 0.00 | 86 | 1008.2 |
| 20260506115024 | 12 | 199 | 0.0 | 3.2 | 0.00 | 0.00 | 0.00 | 86 | 1008.3 |
| 20260506114521 | 12 | 199 | 0.0 | 3.2 | 0.00 | 0.00 | 0.00 | 86 | 1008.3 |
| 20260506114020 | 12 | 198 | 1.6 | 3.2 | 0.00 | 0.00 | 0.00 | 85 | 1008.3 |
| 20260506113517 | 12 | 198 | 0.0 | 3.2 | 0.00 | 0.00 | 0.00 | 86 | 1008.4 |
| 20260506113015 | 12 | 198 | 0.0 | 3.2 | 0.00 | 0.00 | 0.00 | 86 | 1008.6 |
| 20260506112511 | 12 | 198 | 1.6 | 3.2 | 0.00 | 0.00 | 0.00 | 86 | 1008.5 |
| 20260506112008 | 12 | 198 | 0.0 | 3.2 | 0.00 | 0.00 | 0.00 | 86 | 1008.4 |
| 20260506111507 | 12 | 198 | 0.0 | 3.2 | 0.00 | 0.00 | 0.00 | 86 | 1008.7 |
| 20260506111003 | 12 | 198 | 1.6 | 3.2 | 0.00 | 0.00 | 0.00 | 85 | 1008.4 |
| 20260506110501 | 12 | 198 | 1.6 | 3.2 | 0.00 | 0.00 | 0.00 | 85 | 1008.5 |
| 20260506105957 | 12 | 198 | 3.2 | 3.2 | 0.00 | 0.00 | 0.00 | 86 | 1008.7 |
| 20260506105454 | 12 | 199 | 0.0 | 0.0 | 0.00 | 0.00 | 0.00 | 87 | 1008.7 |
| 20260506104951 | 12 | 199 | 0.0 | 3.2 | 0.00 | 0.00 | 0.00 | 86 | 1008.5 |
| 20260506104449 | 12 | 199 | 0.0 | 3.2 | 0.00 | 0.00 | 0.00 | 88 | 1008.6 |
| 20260506103947 | 11 | 199 | 0.0 | 3.2 | 0.00 | 0.00 | 0.00 | 89 | 1008.5 |
| 20260506103444 | 11 | 199 | 0.0 | 0.0 | 0.00 | 0.00 | 0.00 | 90 | 1008.3 |
| 20260506102940 | 11 | 199 | 0.0 | 0.0 | 0.00 | 0.00 | 0.00 | 92 | 1008.2 |
| 20260506102439 | 11 | 199 | 0.0 | 0.0 | 0.00 | 0.00 | 0.00 | 92 | 1008.4 |
| 20260506101936 | 11 | 199 | 0.0 | 3.2 | 0.00 | 0.00 | 0.00 | 92 | 1008.5 |
| 20260506101432 | 11 | 199 | 0.0 | 0.0 | 0.00 | 0.00 | 0.00 | 93 | 1008.0 |
| 20260506100930 | 11 | 199 | 0.0 | 3.2 | 0.00 | 0.00 | 0.00 | 92 | 1008.0 |
| 20260506100428 | 11 | 199 | 0.0 | 0.0 | 0.00 | 0.00 | 0.00 | 90 | 1008.1 |
| 20260506095925 | 11 | 199 | 0.0 | 0.0 | 0.00 | 0.00 | 0.00 | 90 | 1008.1 |
| 20260506095424 | 11 | 199 | 0.0 | 3.2 | 0.00 | 0.00 | 0.00 | 89 | 1008.2 |
| 20260506094919 | 11 | 199 | 0.0 | 0.0 | 0.00 | 0.00 | 0.00 | 89 | 1007.9 |
| 20260506094418 | 11 | 199 | 0.0 | 3.2 | 0.00 | 0.00 | 0.00 | 89 | 1008.1 |
| 20260506093916 | 11 | 199 | 0.0 | 0.0 | 0.00 | 0.00 | 0.00 | 88 | 1008.2 |
| 20260506093413 | 12 | 199 | 0.0 | 3.2 | 0.00 | 0.00 | 0.00 | 88 | 1008.4 |
| 20260506092911 | 12 | 199 | 0.0 | 0.0 | 0.00 | 0.00 | 0.00 | 86 | 1008.1 |
| 20260506092409 | 12 | 199 | 0.0 | 3.2 | 0.00 | 0.00 | 0.00 | 85 | 1008.2 |
| 20260506091905 | 12 | 199 | 1.6 | 3.2 | 0.00 | 0.00 | 0.00 | 86 | 1008.1 |
| 20260506091403 | 11 | 199 | 1.6 | 3.2 | 0.00 | 0.00 | 0.00 | 87 | 1008.0 |
| 20260506090900 | 12 | 199 | 0.0 | 0.0 | 0.00 | 0.00 | 0.00 | 87 | 1007.9 |
| 20260506090358 | 12 | 199 | 0.0 | 0.0 | 0.00 | 0.00 | 0.00 | 86 | 1007.8 |
| 20260506085854 | 12 | 199 | 0.0 | 3.2 | 0.00 | 0.00 | 0.00 | 86 | 1007.8 |
| 20260506085351 | 12 | 199 | 0.0 | 0.0 | 0.00 | 0.00 | 0.00 | 86 | 1007.7 |
| 20260506084847 | 12 | 199 | 0.0 | 0.0 | 0.00 | 0.00 | 0.00 | 86 | 1007.8 |
| 20260506084344 | 12 | 199 | 0.0 | 0.0 | 0.00 | 0.00 | 0.00 | 86 | 1007.9 |
| 20260506083840 | 12 | 199 | 0.0 | 3.2 | 0.00 | 0.00 | 0.00 | 89 | 1007.7 |
| 20260506083338 | 12 | 199 | 0.0 | 0.0 | 0.00 | 0.00 | 0.00 | 89 | 1007.9 |
| 20260506082835 | 12 | 199 | 0.0 | 0.0 | 0.00 | 0.00 | 0.00 | 89 | 1007.8 |
| 20260506082332 | 12 | 199 | 0.0 | 3.2 | 0.00 | 0.00 | 0.00 | 88 | 1007.8 |
| 20260506081828 | 13 | 199 | 0.0 | 0.0 | 0.00 | 0.00 | 0.00 | 85 | 1007.8 |
| 20260506081326 | 13 | 199 | 0.0 | 3.2 | 0.00 | 0.00 | 0.00 | 83 | 1007.7 |
| 20260506080823 | 13 | 199 | 0.0 | 3.2 | 0.00 | 0.00 | 0.00 | 83 | 1007.6 |
| 20260506080320 | 13 | 199 | 0.0 | 3.2 | 0.00 | 0.00 | 0.00 | 83 | 1007.7 |
| 20260506073304 | 13 | 199 | 1.6 | 3.2 | 0.00 | 0.00 | 0.00 | 85 | 1007.5 |
| 20260506072801 | 13 | 199 | 0.0 | 3.2 | 0.00 | 0.00 | 0.00 | 84 | 1007.7 |
| 20260506072258 | 13 | 199 | 0.0 | 3.2 | 0.00 | 0.00 | 0.00 | 84 | 1007.6 |
| 20260506071755 | 13 | 199 | 0.0 | 0.0 | 0.00 | 0.00 | 0.00 | 85 | 1007.6 |
| 20260506071253 | 13 | 199 | 0.0 | 3.2 | 0.00 | 0.00 | 0.00 | 85 | 1007.4 |
| 20260506070744 | 14 | 199 | 0.0 | 3.2 | 0.00 | 0.00 | 0.00 | 83 | 1007.5 |